Data No.,UTC Date,UTC Time,Latitude,Longitude,Course(deg),Temp(degC),Sal(psu)
3900,2011/4/24,3:06:00,19-59.9600N,131-22.2700E,200,26.841,34.7754
3901,2011/4/24,3:07:00,19-59.7400N,131-22.1800E,201,26.86,34.7727
3902,2011/4/24,3:08:00,19-59.5100N,131-22.0900E,200,26.864,34.7724
3903,2011/4/24,3:09:00,19-59.2900N,131-22.0000E,200,26.817,34.7694
3904,2011/4/24,3:10:00,19-59.0700N,131-21.9100E,200,26.794,34.7652
3905,2011/4/24,3:11:00,19-58.8500N,131-21.8200E,200,26.772,34.7629
3906,2011/4/24,3:12:00,19-58.6200N,131-21.7300E,200,26.79,34.7598
3907,2011/4/24,3:13:00,19-58.4000N,131-21.6400E,201,26.765,34.7387
3908,2011/4/24,3:14:00,19-58.1700N,131-21.5400E,201,26.785,34.7582
3909,2011/4/24,3:15:00,19-57.9500N,131-21.4500E,201,26.809,34.7583
3910,2011/4/24,3:16:00,19-57.7300N,131-21.3600E,201,26.817,34.7455
3911,2011/4/24,3:17:00,19-57.5100N,131-21.2600E,201,26.813,34.7582
3912,2011/4/24,3:18:00,19-57.2800N,131-21.1700E,201,26.837,34.7521
3913,2011/4/24,3:19:00,19-57.0600N,131-21.0800E,200,26.861,34.7443
3914,2011/4/24,3:20:00,19-56.8300N,131-20.9900E,200,26.855,34.7397
3915,2011/4/24,3:21:00,19-56.6100N,131-20.9000E,200,26.873,34.76
3916,2011/4/24,3:22:00,19-56.3800N,131-20.8100E,200,26.855,34.7563
3917,2011/4/24,3:23:00,19-56.1500N,131-20.7200E,200,26.857,34.7588
3918,2011/4/24,3:24:00,19-55.9200N,131-20.6300E,200,26.829,34.7593
3919,2011/4/24,3:25:00,19-55.6900N,131-20.5400E,200,26.846,34.7517
3920,2011/4/24,3:26:00,19-55.4600N,131-20.4500E,200,26.84,34.7519
3921,2011/4/24,3:27:00,19-55.2400N,131-20.3600E,201,26.843,34.7506
3922,2011/4/24,3:28:00,19-55.0100N,131-20.2700E,200,26.85,34.7467
3923,2011/4/24,3:29:00,19-54.7900N,131-20.1800E,200,26.87,34.7447
3924,2011/4/24,3:30:00,19-54.5600N,131-20.0900E,201,26.866,34.7379
3925,2011/4/24,3:31:00,19-54.3400N,131-20.0000E,200,26.874,34.742
3926,2011/4/24,3:32:00,19-54.1200N,131-19.9200E,201,26.883,34.7266
3927,2011/4/24,3:33:00,19-53.8900N,131-19.8300E,200,26.878,34.7394
3928,2011/4/24,3:34:00,19-53.6700N,131-19.7300E,200,26.885,34.7384
3929,2011/4/24,3:35:00,19-53.4400N,131-19.6400E,200,26.873,34.7367
3930,2011/4/24,3:36:00,19-53.2200N,131-19.5500E,200,26.907,34.7355
3931,2011/4/24,3:37:00,19-53.0000N,131-19.4700E,200,26.906,34.7347
3932,2011/4/24,3:38:00,19-52.7700N,131-19.3700E,200,26.917,34.7335
3933,2011/4/24,3:39:00,19-52.5500N,131-19.2800E,201,26.913,34.7349
3934,2011/4/24,3:40:00,19-52.3300N,131-19.1900E,201,26.894,34.7351
3935,2011/4/24,3:41:00,19-52.1000N,131-19.1000E,201,26.888,34.7327
3936,2011/4/24,3:42:00,19-51.8800N,131-19.0000E,201,26.888,34.7355
3937,2011/4/24,3:43:00,19-51.6600N,131-18.9100E,201,26.89,34.7324
3938,2011/4/24,3:44:00,19-51.4300N,131-18.8200E,200,26.864,34.728
3939,2011/4/24,3:45:00,19-51.1900N,131-18.7200E,201,26.887,34.736
3940,2011/4/24,3:46:00,19-50.9700N,131-18.6300E,200,26.914,34.7362
3941,2011/4/24,3:47:00,19-50.7500N,131-18.5400E,201,26.906,34.7364
3942,2011/4/24,3:48:00,19-50.5200N,131-18.4500E,201,26.888,34.7364
3943,2011/4/24,3:49:00,19-50.3000N,131-18.3600E,200,26.897,34.7254
3944,2011/4/24,3:50:00,19-50.0800N,131-18.2700E,201,26.924,34.7328
3945,2011/4/24,3:51:00,19-49.8500N,131-18.1800E,200,26.931,34.7319
3946,2011/4/24,3:52:00,19-49.6300N,131-18.0900E,201,26.942,34.7124
3947,2011/4/24,3:53:00,19-49.4100N,131-18.0000E,201,26.943,34.717
3948,2011/4/24,3:54:00,19-49.1900N,131-17.9100E,201,26.923,34.7319
3949,2011/4/24,3:55:00,19-48.9700N,131-17.8200E,200,26.88,34.7268
3950,2011/4/24,3:56:00,19-48.7500N,131-17.7300E,200,26.882,34.7203
3951,2011/4/24,3:57:00,19-48.5200N,131-17.6400E,200,26.874,34.7004
3952,2011/4/24,3:58:00,19-48.3000N,131-17.5500E,200,26.847,34.717
3953,2011/4/24,3:59:00,19-48.0800N,131-17.4600E,200,26.859,34.718
3954,2011/4/24,4:00:00,19-47.8500N,131-17.3700E,200,26.848,34.7199
3955,2011/4/24,4:01:00,19-47.6300N,131-17.2900E,200,26.858,34.7235
3956,2011/4/24,4:02:00,19-47.4100N,131-17.1900E,200,26.89,34.72
3957,2011/4/24,4:03:00,19-47.1900N,131-17.1000E,200,26.889,34.7203
3958,2011/4/24,4:04:00,19-46.9700N,131-17.0100E,201,26.895,34.7222
3959,2011/4/24,4:05:00,19-46.7500N,131-16.9200E,200,26.911,34.7215
3960,2011/4/24,4:06:00,19-46.5200N,131-16.8300E,201,26.902,34.7204
3961,2011/4/24,4:07:00,19-46.2800N,131-16.7400E,200,26.906,34.722
3962,2011/4/24,4:08:00,19-46.0600N,131-16.6500E,201,26.871,34.7235
3963,2011/4/24,4:09:00,19-45.8400N,131-16.5600E,201,26.866,34.7275
3964,2011/4/24,4:10:00,19-45.6100N,131-16.4700E,201,26.873,34.7327
3965,2011/4/24,4:11:00,19-45.3900N,131-16.3800E,201,26.892,34.7165
3966,2011/4/24,4:12:00,19-45.1700N,131-16.2900E,201,26.915,34.7419
3967,2011/4/24,4:13:00,19-44.9400N,131-16.1900E,201,26.879,34.7461
3968,2011/4/24,4:14:00,19-44.7200N,131-16.1000E,201,26.867,34.7438
3969,2011/4/24,4:15:00,19-44.4900N,131-16.0100E,201,26.884,34.7429
3970,2011/4/24,4:16:00,19-44.2700N,131-15.9200E,200,26.915,34.7419
3971,2011/4/24,4:17:00,19-44.0400N,131-15.8300E,200,26.928,34.7304
3972,2011/4/24,4:18:00,19-43.8200N,131-15.7400E,200,26.93,34.7478
3973,2011/4/24,4:19:00,19-43.6000N,131-15.6500E,200,26.964,34.7325
3974,2011/4/24,4:20:00,19-43.3700N,131-15.5600E,200,26.959,34.7528
3975,2011/4/24,4:21:00,19-43.1400N,131-15.4700E,201,26.934,34.7546
3976,2011/4/24,4:22:00,19-42.9200N,131-15.3700E,201,26.934,34.7562
3977,2011/4/24,4:23:00,19-42.6900N,131-15.2800E,201,26.947,34.7509
3978,2011/4/24,4:24:00,19-42.4600N,131-15.1900E,201,26.933,34.7134
3979,2011/4/24,4:25:00,19-42.2400N,131-15.0900E,201,26.942,34.7605
3980,2011/4/24,4:26:00,19-42.0100N,131-15.0000E,201,26.956,34.7621
3981,2011/4/24,4:27:00,19-41.7800N,131-14.9000E,201,26.963,34.7626
3982,2011/4/24,4:28:00,19-41.5500N,131-14.8000E,201,27.021,34.7665
3983,2011/4/24,4:29:00,19-41.3100N,131-14.7000E,202,27.003,34.7655
3984,2011/4/24,4:30:00,19-41.0900N,131-14.6100E,202,26.987,34.7681
3985,2011/4/24,4:31:00,19-40.8600N,131-14.5100E,201,26.936,34.7684
3986,2011/4/24,4:32:00,19-40.6300N,131-14.4200E,201,26.923,34.7631
3987,2011/4/24,4:33:00,19-40.4000N,131-14.3200E,201,26.903,34.7639
3988,2011/4/24,4:34:00,19-40.1800N,131-14.2300E,201,26.888,34.7636
3989,2011/4/24,4:35:00,19-39.9500N,131-14.1400E,201,26.873,34.7647
3990,2011/4/24,4:36:00,19-39.7300N,131-14.0400E,201,26.82,34.7661
3991,2011/4/24,4:37:00,19-39.5000N,131-13.9500E,200,26.794,34.7612
3992,2011/4/24,4:38:00,19-39.2800N,131-13.8600E,201,26.84,34.7628
3993,2011/4/24,4:39:00,19-39.0500N,131-13.7700E,201,26.904,34.763
3994,2011/4/24,4:40:00,19-38.8200N,131-13.6700E,201,26.95,34.7635
3995,2011/4/24,4:41:00,19-38.6000N,131-13.5800E,201,26.929,34.7699
3996,2011/4/24,4:42:00,19-38.3700N,131-13.4800E,201,26.92,34.7685
3997,2011/4/24,4:43:00,19-38.1500N,131-13.3900E,201,26.941,34.7695
3998,2011/4/24,4:44:00,19-37.9200N,131-13.3000E,201,26.915,34.7691
3999,2011/4/24,4:45:00,19-37.7000N,131-13.2100E,201,26.884,34.7707
4000,2011/4/24,4:46:00,19-37.4700N,131-13.1100E,201,26.901,34.7694
4001,2011/4/24,4:47:00,19-37.2500N,131-13.0200E,201,26.916,34.7691
4002,2011/4/24,4:48:00,19-37.0300N,131-12.9300E,201,26.949,34.758
4003,2011/4/24,4:49:00,19-36.8000N,131-12.8300E,201,26.929,34.7709
4004,2011/4/24,4:50:00,19-36.5600N,131-12.7300E,200,26.897,34.7683
4005,2011/4/24,4:51:00,19-36.3300N,131-12.6400E,201,26.903,34.7551
4006,2011/4/24,4:52:00,19-36.1100N,131-12.5500E,200,26.89,34.7734
4007,2011/4/24,4:53:00,19-35.8800N,131-12.4600E,200,26.894,34.7767
4008,2011/4/24,4:54:00,19-35.6500N,131-12.3600E,201,26.895,34.7768
4009,2011/4/24,4:55:00,19-35.4300N,131-12.2700E,201,26.873,34.7684
4010,2011/4/24,4:56:00,19-35.2100N,131-12.1800E,200,26.898,34.7777
4011,2011/4/24,4:57:00,19-34.9800N,131-12.0900E,201,26.861,34.7749
4012,2011/4/24,4:58:00,19-34.7600N,131-11.9900E,201,26.868,34.7818
4013,2011/4/24,4:59:00,19-34.5300N,131-11.9000E,200,26.885,34.7829
4014,2011/4/24,5:00:00,19-34.3000N,131-11.8100E,199,26.787,34.7841
4015,2011/4/24,5:01:00,19-34.0800N,131-11.7200E,199,26.671,34.7849
4016,2011/4/24,5:02:00,19-33.8500N,131-11.6400E,198,26.623,34.8145
4017,2011/4/24,5:03:00,19-33.6200N,131-11.5500E,199,26.667,34.8315
4018,2011/4/24,5:04:00,19-33.3800N,131-11.4600E,199,26.721,34.8379
4019,2011/4/24,5:05:00,19-33.1500N,131-11.3800E,199,26.758,34.8241
4020,2011/4/24,5:06:00,19-32.9100N,131-11.2900E,199,26.737,34.8313
4021,2011/4/24,5:07:00,19-32.6700N,131-11.2000E,198,26.751,34.8245
4022,2011/4/24,5:08:00,19-32.4300N,131-11.1200E,198,26.783,34.8188
4023,2011/4/24,5:09:00,19-32.2000N,131-11.0400E,199,26.844,34.7772
4024,2011/4/24,5:10:00,19-31.9600N,131-10.9500E,198,26.848,34.7924
4025,2011/4/24,5:11:00,19-31.7200N,131-10.8600E,198,26.874,34.8155
4026,2011/4/24,5:12:00,19-31.4600N,131-10.7700E,198,26.892,34.8053
4027,2011/4/24,5:13:00,19-31.2200N,131-10.6800E,198,26.899,34.8117
4028,2011/4/24,5:14:00,19-30.9800N,131-10.6000E,198,26.872,34.8033
4029,2011/4/24,5:15:00,19-30.7500N,131-10.5100E,198,26.878,34.8101
4030,2011/4/24,5:16:00,19-30.5100N,131-10.4300E,198,26.886,34.8009
4031,2011/4/24,5:17:00,19-30.2700N,131-10.3500E,198,26.879,34.8034
4032,2011/4/24,5:18:00,19-30.0300N,131-10.2600E,198,26.861,34.8074
4033,2011/4/24,5:19:00,19-29.7900N,131-10.1800E,198,26.835,34.8044
4034,2011/4/24,5:20:00,19-29.5600N,131-10.1000E,198,26.796,34.7725
4035,2011/4/24,5:21:00,19-29.3200N,131-10.0200E,198,26.846,34.8057
4036,2011/4/24,5:22:00,19-29.0900N,131-09.9400E,198,26.878,34.8042
4037,2011/4/24,5:23:00,19-28.8500N,131-09.8500E,198,26.878,34.806
4038,2011/4/24,5:24:00,19-28.6200N,131-09.7700E,198,26.882,34.806
4039,2011/4/24,5:25:00,19-28.3900N,131-09.6900E,198,26.853,34.8043
4040,2011/4/24,5:26:00,19-28.1500N,131-09.6100E,198,26.877,34.8043
4041,2011/4/24,5:27:00,19-27.9200N,131-09.5200E,198,26.895,34.8043
4042,2011/4/24,5:28:00,19-27.6800N,131-09.4400E,198,26.892,34.8014
4043,2011/4/24,5:29:00,19-27.4400N,131-09.3600E,198,26.911,34.8012
4044,2011/4/24,5:30:00,19-27.2100N,131-09.2700E,198,26.937,34.8023
4045,2011/4/24,5:31:00,19-26.9700N,131-09.1900E,198,26.877,34.8039
4046,2011/4/24,5:32:00,19-26.7300N,131-09.1100E,198,26.857,34.8049
4047,2011/4/24,5:33:00,19-26.4800N,131-09.0200E,198,26.873,34.8021
4048,2011/4/24,5:34:00,19-26.2500N,131-08.9300E,199,26.874,34.8047
4049,2011/4/24,5:35:00,19-26.0200N,131-08.8400E,199,26.866,34.8037
4050,2011/4/24,5:36:00,19-25.7800N,131-08.7600E,199,26.864,34.8032
4051,2011/4/24,5:37:00,19-25.5500N,131-08.6700E,199,26.82,34.8039
4052,2011/4/24,5:38:00,19-25.3100N,131-08.5800E,199,26.829,34.8027
4053,2011/4/24,5:39:00,19-25.0900N,131-08.5000E,199,26.799,34.803
4054,2011/4/24,5:40:00,19-24.8500N,131-08.4100E,199,26.802,34.8025
4055,2011/4/24,5:41:00,19-24.6200N,131-08.3300E,199,26.804,34.8005
4056,2011/4/24,5:42:00,19-24.3900N,131-08.2400E,199,26.77,34.8026
4057,2011/4/24,5:43:00,19-24.1600N,131-08.1600E,198,26.811,34.8022
4058,2011/4/24,5:44:00,19-23.9300N,131-08.0700E,198,26.824,34.7867
4059,2011/4/24,5:45:00,19-23.7000N,131-07.9900E,199,26.804,34.8027
4060,2011/4/24,5:46:00,19-23.4700N,131-07.9000E,199,26.772,34.8014
4061,2011/4/24,5:47:00,19-23.2400N,131-07.8200E,199,26.793,34.8012
4062,2011/4/24,5:48:00,19-23.0100N,131-07.7300E,199,26.796,34.8028
4063,2011/4/24,5:49:00,19-22.7800N,131-07.6500E,199,26.817,34.7568
4064,2011/4/24,5:50:00,19-22.5500N,131-07.5600E,199,26.811,34.8017
4065,2011/4/24,5:51:00,19-22.3200N,131-07.4800E,199,26.778,34.7983
4066,2011/4/24,5:52:00,19-22.0900N,131-07.3900E,199,26.682,34.8005
4067,2011/4/24,5:53:00,19-21.8600N,131-07.3100E,199,26.707,34.7986
4068,2011/4/24,5:54:00,19-21.6400N,131-07.2200E,199,26.732,34.772
4069,2011/4/24,5:55:00,19-21.3900N,131-07.1300E,200,26.766,34.798
4070,2011/4/24,5:56:00,19-21.1600N,131-07.0400E,199,26.738,34.7975
4071,2011/4/24,5:57:00,19-20.9300N,131-06.9600E,199,26.754,34.8009
4072,2011/4/24,5:58:00,19-20.7000N,131-06.8700E,199,26.701,34.8019
4073,2011/4/24,5:59:00,19-20.4800N,131-06.7900E,198,26.711,34.8078
4074,2011/4/24,6:00:00,19-20.2500N,131-06.7100E,198,26.676,34.8146
4075,2011/4/24,6:01:00,19-20.0200N,131-06.6200E,199,26.668,34.8274
4076,2011/4/24,6:02:00,19-19.7900N,131-06.5400E,199,26.673,34.8357
4077,2011/4/24,6:03:00,19-19.5700N,131-06.4600E,199,26.673,34.8521
4078,2011/4/24,6:04:00,19-19.3400N,131-06.3800E,198,26.697,34.8743
4079,2011/4/24,6:05:00,19-19.1100N,131-06.2900E,198,26.722,34.9016
4080,2011/4/24,6:06:00,19-18.8800N,131-06.2100E,197,26.732,34.8892
4081,2011/4/24,6:07:00,19-18.6400N,131-06.1300E,198,26.776,34.9266
4082,2011/4/24,6:08:00,19-18.4100N,131-06.0500E,198,26.802,34.9321
4083,2011/4/24,6:09:00,19-18.1800N,131-05.9700E,198,26.716,34.9253
4084,2011/4/24,6:10:00,19-17.9400N,131-05.8900E,198,26.68,34.9295
4085,2011/4/24,6:11:00,19-17.7100N,131-05.8100E,198,26.658,34.9243
4086,2011/4/24,6:12:00,19-17.4700N,131-05.7200E,198,26.687,34.9228
4087,2011/4/24,6:13:00,19-17.2400N,131-05.6400E,198,26.637,34.9205
4088,2011/4/24,6:14:00,19-17.0000N,131-05.5600E,198,26.682,34.915
4089,2011/4/24,6:15:00,19-16.7600N,131-05.4800E,197,26.684,34.9172
4090,2011/4/24,6:16:00,19-16.5100N,131-05.3900E,197,26.693,34.9156
4091,2011/4/24,6:17:00,19-16.2700N,131-05.3100E,198,26.671,34.9088
4092,2011/4/24,6:18:00,19-16.0400N,131-05.2300E,197,26.63,34.9007
4093,2011/4/24,6:19:00,19-15.8000N,131-05.1500E,198,26.501,34.9029
4094,2011/4/24,6:20:00,19-15.5700N,131-05.0700E,198,26.442,34.8969
4095,2011/4/24,6:21:00,19-15.3300N,131-04.9800E,198,26.452,34.903
4096,2011/4/24,6:22:00,19-15.1000N,131-04.9000E,197,26.508,34.9048
4097,2011/4/24,6:23:00,19-14.8600N,131-04.8200E,198,26.505,34.9026
4098,2011/4/24,6:24:00,19-14.6300N,131-04.7400E,198,26.483,34.9105
4099,2011/4/24,6:25:00,19-14.4000N,131-04.6600E,198,26.527,34.9105
4100,2011/4/24,6:26:00,19-14.1600N,131-04.5800E,198,26.519,34.915
4101,2011/4/24,6:27:00,19-13.9300N,131-04.5000E,198,26.531,34.9185
4102,2011/4/24,6:28:00,19-13.7000N,131-04.4200E,198,26.543,34.9283
4103,2011/4/24,6:29:00,19-13.4600N,131-04.3300E,198,26.622,34.9371
4104,2011/4/24,6:30:00,19-13.2300N,131-04.2500E,198,26.641,34.938
4105,2011/4/24,6:31:00,19-13.0000N,131-04.1700E,198,26.652,34.9478
4106,2011/4/24,6:32:00,19-12.7700N,131-04.0900E,197,26.677,34.9298
4107,2011/4/24,6:33:00,19-12.5400N,131-04.0100E,198,26.689,34.9614
4108,2011/4/24,6:34:00,19-12.3000N,131-03.9300E,198,26.731,34.9635
4109,2011/4/24,6:35:00,19-12.0800N,131-03.8500E,197,26.731,34.9703
4110,2011/4/24,6:36:00,19-11.8400N,131-03.7700E,197,26.7,34.9742
4111,2011/4/24,6:37:00,19-11.6100N,131-03.6900E,197,26.677,---
4112,2011/4/24,6:38:00,19-11.3600N,131-03.6100E,198,26.672,34.9929
4113,2011/4/24,6:39:00,19-11.1400N,131-03.5300E,198,26.672,35.0012
4114,2011/4/24,6:40:00,19-10.9000N,131-03.4500E,198,26.611,35.0051
4115,2011/4/24,6:41:00,19-10.6700N,131-03.3700E,198,26.629,35.0037
4116,2011/4/24,6:42:00,19-10.4400N,131-03.2900E,198,26.628,35.0059
4117,2011/4/24,6:43:00,19-10.2100N,131-03.2100E,197,26.598,35.0052
4118,2011/4/24,6:44:00,19-09.9800N,131-03.1300E,197,26.582,35.0078
4119,2011/4/24,6:45:00,19-09.7500N,131-03.0500E,197,26.561,35.0076
4120,2011/4/24,6:46:00,19-09.5200N,131-02.9700E,197,26.545,34.9976
4121,2011/4/24,6:47:00,19-09.2900N,131-02.9000E,197,26.52,35.0096
4122,2011/4/24,6:48:00,19-09.0600N,131-02.8200E,197,26.496,34.9979
4123,2011/4/24,6:49:00,19-08.8200N,131-02.7400E,197,26.468,35.0089
4124,2011/4/24,6:50:00,19-08.5900N,131-02.6600E,197,26.444,35.0102
4125,2011/4/24,6:51:00,19-08.3600N,131-02.5800E,197,26.421,35.0104
4126,2011/4/24,6:52:00,19-08.1300N,131-02.5100E,196,26.471,35.0094
4127,2011/4/24,6:53:00,19-07.9000N,131-02.4400E,197,26.498,35.0166
4128,2011/4/24,6:54:00,19-07.6600N,131-02.3600E,196,26.535,35.0183
4129,2011/4/24,6:55:00,19-07.4300N,131-02.2900E,197,26.57,35.022
4130,2011/4/24,6:56:00,19-07.2000N,131-02.2100E,196,26.595,35.023
4131,2011/4/24,6:57:00,19-06.9700N,131-02.1400E,196,26.619,35.0229
4132,2011/4/24,6:58:00,19-06.7400N,131-02.0700E,196,26.615,35.0143
4133,2011/4/24,6:59:00,19-06.4900N,131-01.9800E,197,26.604,35.0203
4134,2011/4/24,7:00:00,19-06.2600N,131-01.9100E,196,26.628,35.0171
4135,2011/4/24,7:01:00,19-06.0200N,131-01.8400E,196,26.619,35.0138
4136,2011/4/24,7:02:00,19-05.8000N,131-01.7700E,195,26.597,35.0083
4137,2011/4/24,7:03:00,19-05.5700N,131-01.7000E,195,26.542,35.0008
4138,2011/4/24,7:04:00,19-05.3300N,131-01.6300E,195,26.602,34.9823
4139,2011/4/24,7:05:00,19-05.1000N,131-01.5600E,195,26.661,34.9542
4140,2011/4/24,7:06:00,19-04.8600N,131-01.4900E,194,26.737,34.9488
4141,2011/4/24,7:07:00,19-04.6300N,131-01.4300E,194,26.755,34.934
4142,2011/4/24,7:08:00,19-04.4000N,131-01.3700E,194,26.724,34.9092
4143,2011/4/24,7:09:00,19-04.1600N,131-01.3000E,194,26.748,34.8724
4144,2011/4/24,7:10:00,19-03.9200N,131-01.2300E,194,26.744,34.8457
4145,2011/4/24,7:11:00,19-03.6900N,131-01.1700E,194,26.787,34.8278
4146,2011/4/24,7:12:00,19-03.4500N,131-01.1000E,194,26.816,34.8154
4147,2011/4/24,7:13:00,19-03.2000N,131-01.0400E,195,26.843,34.8071
4148,2011/4/24,7:14:00,19-02.9700N,131-00.9700E,194,26.864,34.7974
4149,2011/4/24,7:15:00,19-02.7300N,131-00.9000E,194,26.881,34.7843
4150,2011/4/24,7:16:00,19-02.4900N,131-00.8300E,194,26.882,34.7714
4151,2011/4/24,7:17:00,19-02.2500N,131-00.7700E,195,26.865,34.7508
4152,2011/4/24,7:18:00,19-02.0200N,131-00.7000E,195,26.894,34.7323
4153,2011/4/24,7:19:00,19-01.7800N,131-00.6300E,195,26.934,34.7053
4154,2011/4/24,7:20:00,19-01.5400N,131-00.5600E,194,26.958,34.7131
4155,2011/4/24,7:21:00,19-01.2700N,131-00.4900E,194,26.976,34.7101
4156,2011/4/24,7:22:00,19-01.0400N,131-00.4200E,195,26.981,34.6911
4157,2011/4/24,7:23:00,19-00.7900N,131-00.3500E,195,26.984,34.6933
4158,2011/4/24,7:24:00,19-00.5500N,131-00.2800E,195,27.012,34.6734
4159,2011/4/24,7:25:00,19-00.3100N,131-00.2100E,195,27.043,34.6783
4160,2011/4/24,7:26:00,19-00.0600N,131-00.1400E,195,27.034,34.6813
4161,2011/4/24,7:27:00,18-59.8100N,131-00.0700E,195,27.02,34.6727
4162,2011/4/24,7:28:00,18-59.5600N,130-59.9900E,195,27.049,34.6812
4163,2011/4/24,7:29:00,18-59.3300N,130-59.9300E,195,27.08,34.6805
4164,2011/4/24,7:30:00,18-59.0900N,130-59.8600E,195,27,34.6823
4165,2011/4/24,7:31:00,18-58.8400N,130-59.7800E,195,27.055,34.6787
4166,2011/4/24,7:32:00,18-58.5900N,130-59.7100E,195,27.062,34.6793
4167,2011/4/24,7:33:00,18-58.3500N,130-59.6300E,195,27.044,34.6697
4168,2011/4/24,7:34:00,18-58.1200N,130-59.5600E,196,27.05,34.6687
4169,2011/4/24,7:35:00,18-57.8700N,130-59.4900E,195,27.027,34.6721
4170,2011/4/24,7:36:00,18-57.6200N,130-59.4100E,196,27.067,34.669
4171,2011/4/24,7:37:00,18-57.3800N,130-59.3400E,196,27.081,34.6696
4172,2011/4/24,7:38:00,18-57.1300N,130-59.2600E,196,27.05,34.6617
4173,2011/4/24,7:39:00,18-56.8800N,130-59.1900E,196,27.022,34.6646
4174,2011/4/24,7:40:00,18-56.6400N,130-59.1100E,196,27.007,34.6497
4175,2011/4/24,7:41:00,18-56.3900N,130-59.0300E,197,26.982,34.674
4176,2011/4/24,7:42:00,18-56.1300N,130-58.9500E,196,27.032,34.6596
4177,2011/4/24,7:43:00,18-55.8900N,130-58.8800E,196,27.031,34.6883
4178,2011/4/24,7:44:00,18-55.6400N,130-58.8000E,196,27.063,34.7013
4179,2011/4/24,7:45:00,18-55.3900N,130-58.7200E,196,27.076,34.6979
4180,2011/4/24,7:46:00,18-55.1500N,130-58.6400E,196,27.111,34.6962
4181,2011/4/24,7:47:00,18-54.9000N,130-58.5600E,196,27.125,34.6915
4182,2011/4/24,7:48:00,18-54.6500N,130-58.4900E,196,27.079,34.6825
4183,2011/4/24,7:49:00,18-54.4100N,130-58.4100E,196,27.086,34.6901
4184,2011/4/24,7:50:00,18-54.1700N,130-58.3300E,196,27.075,34.6919
4185,2011/4/24,7:51:00,18-53.9200N,130-58.2500E,196,27.105,34.6917
4186,2011/4/24,7:52:00,18-53.6800N,130-58.1700E,196,27.111,34.6993
4187,2011/4/24,7:53:00,18-53.4400N,130-58.1000E,196,27.169,34.7093
4188,2011/4/24,7:54:00,18-53.1900N,130-58.0200E,196,27.174,34.7161
4189,2011/4/24,7:55:00,18-52.9500N,130-57.9400E,197,27.195,34.7189
4190,2011/4/24,7:56:00,18-52.7000N,130-57.8600E,197,27.21,34.7155
4191,2011/4/24,7:57:00,18-52.4500N,130-57.7800E,196,27.164,34.7186
4192,2011/4/24,7:58:00,18-52.2100N,130-57.7000E,197,27.174,34.7166
4193,2011/4/24,7:59:00,18-51.9700N,130-57.6100E,198,27.157,34.7048
4194,2011/4/24,8:00:00,18-51.7200N,130-57.5200E,200,27.125,34.6873
4195,2011/4/24,8:01:00,18-51.4800N,130-57.4300E,201,27.119,34.6737
4196,2011/4/24,8:02:00,18-51.2400N,130-57.3300E,201,27.104,34.6695
4197,2011/4/24,8:03:00,18-51.0100N,130-57.2300E,202,27.144,34.6559
4198,2011/4/24,8:04:00,18-50.7500N,130-57.1200E,201,27.176,34.6312
4199,2011/4/24,8:05:00,18-50.5100N,130-57.0200E,202,27.191,34.6241
4200,2011/4/24,8:06:00,18-50.2700N,130-56.9200E,201,27.21,34.6159
4201,2011/4/24,8:07:00,18-50.0300N,130-56.8200E,201,27.2,34.6138
4202,2011/4/24,8:08:00,18-49.7900N,130-56.7100E,201,27.214,34.6139
4203,2011/4/24,8:09:00,18-49.5400N,130-56.6100E,201,27.181,34.589
4204,2011/4/24,8:10:00,18-49.3100N,130-56.5100E,202,27.19,34.6032
4205,2011/4/24,8:11:00,18-49.0600N,130-56.4000E,202,27.225,34.5943
4206,2011/4/24,8:12:00,18-48.8300N,130-56.3000E,202,27.266,34.5853
4207,2011/4/24,8:13:00,18-48.5800N,130-56.2000E,201,27.279,34.589
4208,2011/4/24,8:14:00,18-48.3500N,130-56.1000E,202,27.314,34.5851
4209,2011/4/24,8:15:00,18-48.1000N,130-56.0000E,202,27.322,34.5775
4210,2011/4/24,8:16:00,18-47.8700N,130-55.9000E,202,27.325,34.5645
4211,2011/4/24,8:17:00,18-47.6200N,130-55.7900E,202,27.355,34.5512
4212,2011/4/24,8:18:00,18-47.3800N,130-55.6900E,202,27.402,34.5451
4213,2011/4/24,8:19:00,18-47.1400N,130-55.5800E,202,27.43,34.5362
4214,2011/4/24,8:20:00,18-46.9000N,130-55.4800E,202,27.443,34.5366
4215,2011/4/24,8:21:00,18-46.6600N,130-55.3800E,202,27.439,34.5338
4216,2011/4/24,8:22:00,18-46.4100N,130-55.2700E,202,27.473,34.5279
4217,2011/4/24,8:23:00,18-46.1700N,130-55.1700E,202,27.462,34.5116
4218,2011/4/24,8:24:00,18-45.9300N,130-55.0600E,202,27.374,34.5288
4219,2011/4/24,8:25:00,18-45.6700N,130-54.9500E,202,27.38,34.5266
4220,2011/4/24,8:26:00,18-45.4300N,130-54.8400E,202,27.345,34.5206
4221,2011/4/24,8:27:00,18-45.1900N,130-54.7400E,202,27.388,34.5113
4222,2011/4/24,8:28:00,18-44.9500N,130-54.6300E,202,27.424,34.5232
4223,2011/4/24,8:29:00,18-44.7100N,130-54.5200E,202,27.421,34.5239
4224,2011/4/24,8:30:00,18-44.4800N,130-54.4200E,202,27.411,34.5195
4225,2011/4/24,8:31:00,18-44.2300N,130-54.3200E,202,27.45,34.5344
4226,2011/4/24,8:32:00,18-43.9900N,130-54.2100E,202,27.444,34.538
4227,2011/4/24,8:33:00,18-43.7600N,130-54.1100E,202,27.445,34.5508
4228,2011/4/24,8:34:00,18-43.5100N,130-54.0000E,202,27.435,34.5452
4229,2011/4/24,8:35:00,18-43.2700N,130-53.9000E,202,27.411,34.5532
4230,2011/4/24,8:36:00,18-43.0400N,130-53.7900E,203,27.461,34.5502
4231,2011/4/24,8:37:00,18-42.8000N,130-53.6900E,202,27.442,34.543
4232,2011/4/24,8:38:00,18-42.5500N,130-53.5800E,202,27.457,34.5479
4233,2011/4/24,8:39:00,18-42.3200N,130-53.4800E,202,27.509,34.5501
4234,2011/4/24,8:40:00,18-42.0700N,130-53.3700E,202,27.494,34.5696
4235,2011/4/24,8:41:00,18-41.8300N,130-53.2600E,202,27.462,34.5927
4236,2011/4/24,8:42:00,18-41.5900N,130-53.1600E,202,27.451,34.5933
4237,2011/4/24,8:43:00,18-41.3500N,130-53.0600E,202,27.383,34.5832
4238,2011/4/24,8:44:00,18-41.1100N,130-52.9500E,202,27.368,34.564
4239,2011/4/24,8:45:00,18-40.8600N,130-52.8400E,203,27.339,34.5529
4240,2011/4/24,8:46:00,18-40.6200N,130-52.7300E,203,27.262,34.5537
4241,2011/4/24,8:47:00,18-40.3600N,130-52.6200E,202,27.327,34.5511
4242,2011/4/24,8:48:00,18-40.1200N,130-52.5100E,203,27.303,34.5565
4243,2011/4/24,8:49:00,18-39.8800N,130-52.4100E,203,27.291,34.5525
4244,2011/4/24,8:50:00,18-39.6400N,130-52.3000E,202,27.252,34.5387
4245,2011/4/24,8:51:00,18-39.4000N,130-52.1900E,202,27.265,34.5268
4246,2011/4/24,8:52:00,18-39.1600N,130-52.0900E,202,27.312,34.5213
4247,2011/4/24,8:53:00,18-38.9200N,130-51.9800E,202,27.318,34.5139
4248,2011/4/24,8:54:00,18-38.6800N,130-51.8700E,202,27.311,34.5125
4249,2011/4/24,8:55:00,18-38.4400N,130-51.7700E,203,27.339,34.5137
4250,2011/4/24,8:56:00,18-38.2000N,130-51.6600E,202,27.301,34.5238
4251,2011/4/24,8:57:00,18-37.9500N,130-51.5500E,202,27.264,34.508